Theta_e
320 333 343 344 342 344 346 347 346 347 347 347 346 346 347 347 346 345 348 348 349 348 345 345 345 342 342 342 342 343 343 343
320 321 329 342 344 344 346 347 349 348 345 344 343 343 345 345 345 347 347 348 349 348 345 345 345 342 341 343 343 341 340 343
317 320 321 322 326 340 345 346 349 350 348 347 346 345 346 346 347 346 347 347 348 347 345 343 345 341 342 342 342 339 338 340
315 317 320 323 324 325 327 336 344 349 349 348 348 347 347 345 345 345 346 346 347 346 345 344 344 343 340 342 342 341 336 329
315 316 318 320 322 326 326 326 330 338 347 343 346 342 341 345 345 346 346 347 345 346 345 345 345 343 342 343 342 342 341 333
312 314 316 318 321 323 328 327 325 328 340 345 345 343 345 345 345 345 347 346 345 344 345 345 344 344 344 345 343 343 339 334
311 314 316 316 319 323 326 327 326 326 330 343 345 344 343 341 344 343 344 343 344 345 344 345 346 345 344 345 345 342 341 339
311 311 314 316 318 321 323 325 326 330 330 337 342 343 343 343 343 343 342 342 339 343 345 346 347 346 345 345 344 342 341 336
311 312 313 315 318 319 322 325 328 331 337 339 342 343 342 342 344 343 343 342 340 341 341 345 347 346 345 345 344 342 334 327
310 312 314 314 315 317 320 322 326 333 339 342 343 344 344 343 344 346 345 344 341 340 339 341 344 345 342 336 329 320 319 319
310 311 312 314 316 318 320 320 319 325 335 340 341 342 344 344 345 345 344 342 341 344 338 341 341 339 334 329 327 320 314 316
307 307 309 311 314 316 321 325 325 325 325 329 336 339 342 344 344 343 341 339 339 341 338 338 336 333 331 328 322 314 313 311
305 305 306 307 309 314 317 322 326 330 331 330 330 336 340 342 343 341 339 336 333 337 334 333 332 330 323 318 311 310 308 304
303 304 304 305 305 309 315 318 321 326 332 334 334 333 337 339 339 338 332 331 328 329 329 328 325 318 314 310 306 304 304 301
300 301 302 304 304 307 310 314 319 322 328 332 335 336 337 336 327 325 326 325 323 320 322 322 319 314 309 305 301 300 304 301
298 299 300 302 302 305 308 311 315 318 322 325 327 332 333 329 323 322 318 316 319 315 316 316 315 312 305 303 304 298 301 297
297 298 299 300 301 303 306 308 311 315 317 321 323 319 319 317 313 312 310 311 310 310 308 308 306 302 296 296 301 302 298 296
296 297 298 300 302 303 304 306 310 312 314 318 321 319 310 308 309 308 307 307 307 306 305 305 303 300 293 293 294 298 295 298
297 298 300 301 303 304 305 306 308 309 312 314 316 316 306 292 302 301 299 305 304 304 304 304 302 300 293 292 292 298 298 298
Wind_Speed
14 14 17 18 18 17 17 17 18 18 14 13 11 11 11 11 11 12 15 15 18 15 12 12 12 11 10 10 11 9 8 7
15 10 11 14 16 17 17 17 18 15 14 14 13 14 13 13 13 17 17 16 18 17 13 13 13 12 12 12 11 10 8 6
17 13 12 12 15 17 18 19 19 17 14 13 13 13 12 12 13 15 17 19 18 17 16 14 15 12 14 14 14 6 6 7
17 17 14 12 14 15 16 19 19 18 18 13 12 12 11 12 14 14 17 19 19 19 18 15 15 13 12 14 14 15 9 6
16 17 17 15 13 13 16 16 17 18 19 17 19 16 15 14 14 13 14 19 20 20 19 18 15 13 13 12 13 14 11 9
17 17 18 18 16 14 11 13 15 16 18 19 16 18 14 11 12 15 15 16 20 20 19 18 16 12 13 13 14 13 11 9
16 15 15 15 14 12 12 13 15 15 18 21 21 20 18 14 14 12 13 13 14 19 19 17 16 15 15 13 14 16 13 11
10 10 10 12 14 14 13 14 16 16 18 20 22 22 20 19 17 13 15 12 12 17 19 17 14 16 14 12 14 14 13 12
8 8 9 8 8 9 11 13 14 14 16 18 18 20 14 14 16 13 13 13 13 15 15 15 17 15 13 14 11 10 10 8
8 7 8 10 9 9 8 11 12 12 14 14 16 16 18 16 18 15 12 13 11 15 16 15 16 16 16 15 10 11 10 8
6 7 8 7 7 6 6 9 11 11 13 13 13 16 17 17 14 17 15 11 15 17 15 15 16 17 16 15 12 12 11 9
6 7 8 9 8 8 7 7 8 9 11 14 15 15 16 16 14 16 14 12 14 15 14 16 18 18 16 14 13 13 12 12
7 7 7 9 10 10 9 7 7 7 9 11 13 15 15 16 16 15 13 13 11 15 15 15 17 16 16 16 14 12 14 13
8 8 8 8 10 10 10 10 10 9 9 9 10 13 15 14 13 11 12 13 12 12 13 14 16 15 15 13 14 13 12 12
9 9 9 9 10 10 10 10 11 11 9 10 10 10 11 7 8 11 12 12 14 12 12 12 15 16 16 15 15 13 15 10
11 11 11 11 11 11 10 11 11 11 11 8 8 8 9 10 12 12 10 11 12 12 12 11 15 16 13 17 15 14 14 11
15 14 14 13 11 10 11 12 12 11 11 10 7 4 5 7 7 9 10 11 11 12 13 14 15 9 15 18 18 15 13 11
16 15 14 13 12 11 12 12 12 11 10 9 9 8 4 5 7 8 10 12 12 12 13 14 13 12 19 20 18 12 12 12
15 13 12 13 14 15 14 14 13 11 10 9 7 9 6 3 6 7 6 9 12 12 12 13 13 12 20 19 16 13 11 12
Wind_Direction
215 221 211 212 214 202 202 198 203 201 202 206 204 207 206 212 210 213 207 211 208 208 211 209 200 205 203 207 213 205 226 226
225 211 225 226 220 217 214 210 205 199 202 202 206 209 207 210 214 211 208 209 209 207 211 200 203 208 208 204 205 211 213 215
237 226 213 208 221 223 218 219 212 209 207 211 213 213 212 213 212 211 210 206 205 207 211 201 202 207 206 204 209 184 199 195
240 243 236 231 221 219 224 225 222 212 218 216 212 217 217 211 215 212 211 210 206 204 206 208 202 209 205 207 204 201 194 180
250 256 254 248 248 233 226 226 227 223 211 219 213 212 208 213 214 212 210 206 208 205 206 207 204 201 209 200 204 210 212 184
247 244 250 254 252 240 230 230 227 227 212 216 213 217 222 214 213 218 210 201 207 206 202 202 205 205 204 200 201 204 196 181
252 255 252 251 249 250 244 237 235 226 223 213 220 219 220 217 215 209 204 203 203 206 202 201 201 200 202 199 194 199 204 197
259 245 246 250 241 240 236 235 238 224 219 219 218 221 221 223 219 211 209 202 197 202 199 195 197 198 196 192 196 202 196 197
252 259 292 276 273 269 254 247 237 225 217 219 221 224 221 222 222 215 217 204 200 195 195 196 195 187 188 190 198 193 173 178
309 321 322 301 284 274 255 259 253 237 220 220 222 221 221 219 222 216 213 209 194 187 186 193 193 188 181 177 174 157 153 146
20 20 9 351 336 316 294 265 256 247 234 227 227 223 224 221 216 215 209 193 190 196 185 185 184 183 176 173 166 167 148 152
25 14 11 11 2 352 349 312 280 266 250 240 233 230 224 219 214 216 207 184 193 187 187 187 183 181 172 171 167 152 147 149
357 359 9 5 1 358 357 343 321 296 280 266 248 238 229 219 214 206 191 181 170 186 188 191 187 178 163 161 148 145 148 146
347 356 355 357 353 353 352 350 340 321 296 275 256 243 231 224 213 187 169 172 173 184 184 181 174 164 155 147 137 137 142 140
330 333 336 340 342 337 337 344 342 330 311 297 273 252 242 202 151 165 166 177 173 168 176 177 166 161 152 145 138 137 145 145
315 319 324 322 333 329 332 331 337 335 318 306 293 261 224 189 175 173 164 168 171 162 166 164 165 164 158 144 143 141 142 142
303 308 313 312 321 322 323 319 329 332 321 307 288 256 216 178 163 160 155 155 154 154 156 155 158 155 142 143 144 152 143 141
295 301 302 302 306 309 309 311 315 322 318 309 295 267 213 176 163 159 160 166 161 161 156 153 150 135 136 135 137 140 138 151
284 292 302 301 299 299 304 303 304 308 316 306 280 263 224 189 168 170 169 167 163 158 156 153 137 147 146 136 133 133 142 136